Terug naar catalogus

STARLINK-35417

ActiefCommunicatieVLEO
NORAD 66335·PAYLOAD·🇺🇸 United States

Gelanceerd Nov 6, 2025 vanaf Cape Canaveral Space Force Station

Loading…

Volgende Passages (komende 24 uur)

TLE

VersSource: CelesTrak SupGP

Epoch: Sep 15, 2026, 02:36 UTC

1 66335C 25253S   26258.10881944 -.00066161  00000+0 -23964-2 0  2583
2 66335  43.0007 222.8103 0001313 272.2890  73.1715 15.27610638    19

Volg STARLINK-35417 in realtime met AllMySat

Download on the App Store